SL-3 DEB

Satellite information

Favourite Embed

Satellite Type and Status

DEBRISIN ORBIT

Key statistics

Satellite SL-3 DEB at a glance.

Uptime

15336

Days in orbit

Revolutions

≈ 14.3

Per day

Orbit

LEO

Low Earth Orbit

Inclination

81.2

Latest

Satellite identification and parameters

Extended collection of information and parameters for SL-3 DEB.

Object identification

Identified? True

Debris? True

Object name: SL-3 DEB

International designator: 1983-109C

Object number (NORAD): 14454

Object ID (CCSDS): 14454

Country: COMMONWEALTH OF INDEPENDENT STATES (CIS)

Current information (Y/N): Y

RCS size: SMALL

Orbital parameters

Period: 100.958 minutes

Inclination: 81.1613 deg

SMA: 7182.146 km

Apoapsis: 871.651 km

Periapsis: 736.371 km

RAAN: 246.7395 deg

Eccentricy: 0.0094178

Argument of periapsis: 194.7898 deg

Mean anomaly: 195.0662 deg

Mean motion: 14.26334685 rev/day

Mean motion (dot): 0.00000183 rev/day2

B* drag term: 0.000067529 1/REarth

Two-line elements (TLE)

Creation date: Oct. 21, 2025, 11:56 p.m.

Reference frame: TEME

Reference center: EARTH

Epoch: Oct. 21, 2025, 8:27 p.m. UTC

TLE line 0: 0 SL-3 DEB

TLE line 1: 1 14454U 83109C 25294.85229184 .00000183 00000-0 67529-4 0 9995

TLE line 2: 2 14454 81.1613 246.7395 0094178 194.7898 195.0662 14.26334685182991

Live tracking on map

Real-time ground track for satellite SL-3 DEB.

In-orbit conjunctions

A list of the most updated potential collisions computed for object SL-3 DEB.

Target Orbit TCA Probability of collision Miss distance Type
FENGYUN 1C DEB SSO 2024-12-12 19:27:11 0.0001817383 158.0 (m) DEBRIS
NOAA 17 DEB SSO 2024-07-25 12:20:31 0.0001270456 60.0 (m) DEBRIS

Associated space launch

Second generation soviet meteorological satellite

SL-3 DEB was lifted into orbit during the mission ‘Vostok 8A92M | Meteor-2 10’, on board a Vostok 8A92M space rocket.

The launch took place on Oct. 28, 1983, 9 a.m. from 16/2.

For more information about the launch, click the button.

Launch to space Vostok 8A92M | Meteor-2 10
Vostok 8A92M | Meteor-2 10

Agency: N/A

Status: Launch Successful

Launch date: Oct. 28, 1983, 9 a.m. UTC

Rocket: Vostok 8A92M

Launch pad: 16/2

Location: Plesetsk Cosmodrome, Russian Federation

...

Latest news about this satellite

There are no fresh news available about this satellite. Check back as we update our databases every day.


Newsletter sign-up

Weekly statistics, charts and insights to help you stay on top of the space industry.